Погода в Бахавалпуре

Пакистан     29°23′42″N   71°40′42″E
темп.,
°C
ветер,
м/с
пор.,
м/с
влажн.,
%
обл.,
%
осадки,
мм/ч
давл.,
гПа
погр.,
м
18 октября, пн
пн1823:00+25св22360 0.0 100615
02:00+24св22560 0.0 100514
05:00+24вюв23670 0.0 100523
08:00+27юв22580 0.0 1007267
11:00+33ююз11280 0.0 10061668
14:00+36зюз12130 0.0 10033697
17:00+34сз23120 0.0 100361
20:00+27св33170 0.0 100633
19 октября, вт
вт1923:00+28ю22220 0.0 100616
02:00+26ю33240 0.0 100628
05:00+24з22250 0.0 100715
08:00+28зюз11170 0.0 100996
11:00+36з3460 0.0 10091261
14:00+38зсз3350 0.0 10063435
17:00+35сз3360 0.0 100624
20:00+28ссв2290 0.0 100712
20 октября, ср
ср2023:00+27юв3390 0.0 100813
02:00+25ююз22100 0.0 100811
05:00+23з12100 0.0 100911
08:00+27юз2280 0.0 1011112
11:00+36зюз4540 0.0 10111078
14:00+39зюз4330 0.0 10072617
17:00+35юз3340 0.0 100716
20:00+28з2360 0.0 100913
21 октября, чт
чт2123:00+25зюз3370 0.0 100915
02:00+24зюз2290 0.0 100811
05:00+22зюз33140 0.0 100914
08:00+27юз47140 0.0 1010202
11:00+36зюз6770 0.0 10091120
14:00+39зюз7740 0.0 10062209
17:00+35зюз5870 0.0 1005156
20:00+29юз514160 0.0 1007247
22 октября, пт
пт2223:00+28юз615200 0.0 1007333
02:00+26юз616230 0.0 1007357
05:00+24юз615360 0.0 1008352
08:00+26юз713390 0.0 1010495
11:00+34юз89160 0.0 10101101
14:00+36ююз78120 0.0 10061639
17:00+34ююз69150 0.0 1006437
20:00+28ю513220 0.0 1007238